Location: Rumah Sambob
(2.9167°N, 113.9167°E)
Time: 18:18:29
(UTC+00:00)

Skynet4D Del rocket - Pass Details

Date: 06 June 2020
Orbit: 763 x 1291 km, 26.9° (Epoch: 11 July)

Event Time Altitude Azimuth Distance (km) Brightness Sun altitude
Rises 21:08:07 0° 306° (NW) 3,530 6.6 -16.1°
Reaches altitude 10° 21:10:55 10° 312° (NW) 2,512 5.9 -15.4°
Maximum altitude 21:16:38 50° 27° (NNE) 1,012 4.5 -14.1°
Drops below altitude 10° 21:21:53 10° 102° (ESE) 2,306 6.8 -12.9°
Sets 21:24:21 0° 107° (ESE) 3,215 7.5 -12.4°
